Location: Kerguer�zec
(48.4509°N, 4.7600°W)
Time: 07:21:22
(UTC+00:00)

Daily predictions for brighter satellites

Satellite Brightness Start Highest point End
(mag) Time Altitude Azimuth Time Altitude Azimuth Time Altitude Azimuth
SPOT 3 Rocket 4.3 19:25:02 10° SE 19:29:43 35° ENE 19:34:23 10° N
FALCON 9 DEB 4.2 19:26:42 10° SSW 19:29:44 28° SE 19:32:48 10° E
Cosmos 2154 Rocket 4.3 19:24:39 10° N 19:30:51 51° ENE 19:36:58 10° SSE
ARGOS 3.3 19:25:47 10° SSE 19:31:03 57° ENE 19:36:19 10° N
Cosmos 1953 Rocket 3.8 19:27:26 10° N 19:31:51 52° ENE 19:36:14 10° SSE
Cosmos 1606 Rocket 3.7 19:28:19 10° S 19:32:38 54° E 19:37:01 10° NNE
NOSS 3-4 (A) 3.9 19:25:59 10° NW 19:32:57 87° NE 19:40:39 10° SE
NOSS 3-4 (C) 3.9 19:26:06 10° NW 19:33:04 86° NE 19:40:45 10° SE
STARLINK-1236 4.2 19:29:28 10° WNW 19:33:31 50° NNE 19:37:34 10° E
GEOS 3 Rocket 3.8 19:29:42 10° SE 19:34:51 77° SW 19:40:07 10° NW
USA 186 1.8 19:33:13 10° SSE 19:36:25 56° ENE 19:39:29 10° N
STARLINK-67 2.8 19:34:06 10° WNW 19:36:38 57° SSW 19:39:09 10° SE
Cosmos 1953 2.9 19:35:01 10° SSW 19:38:56 63° W 19:42:57 10° N
CZ-4 R/B 4.1 19:36:01 10° SW 19:38:59 21° W 19:42:00 10° NW
Meteor 1-11 4.4 19:36:14 10° N 19:41:56 60° ENE 19:47:32 10° SSE
Cosmos 1818 3.8 19:36:56 10° SW 19:42:22 80° NW 19:47:52 10° NE
STARLINK-1269 4.1 19:39:26 10° WNW 19:43:31 53° NNE 19:47:35 10° E
STARLINK-1200 4.1 19:44:26 10° WNW 19:48:30 55° NNE 19:52:31 10° E
Cosmos 2074 Rocket 4.2 19:43:33 10° N 19:49:52 79° W 19:56:09 10° S
STARLINK-1234 2.9 19:50:02 10° WNW 19:53:09 75° SSW 19:55:47 14° SE
STARLINK-1192 4.0 19:49:24 10° WNW 19:53:30 57° NNE 19:57:18 12° E
STARLINK-1209 3.0 19:50:30 10° WNW 19:53:37 71° SSW 19:56:15 14° SE
STARLINK-1233 2.8 19:50:53 10° WNW 19:54:03 87° NNE 19:56:38 14° ESE
STARLINK-1212 2.8 19:51:22 10° WNW 19:54:30 88° NNE 19:57:04 14° ESE
STARLINK-1105 2.8 19:51:48 10° WNW 19:54:57 88° NNE 19:57:31 15° ESE
STARLINK-1206 2.8 19:52:16 10° WNW 19:55:24 89° NNE 19:57:55 15° ESE
STARLINK-1247 2.8 19:52:44 10° WNW 19:55:52 89° NNE 19:58:22 15° ESE
STARLINK-1227 2.8 19:53:08 10° WNW 19:56:17 90° NNW 19:58:47 15° ESE
STARLINK-1218 2.8 19:53:38 10° WNW 19:56:45 89° WSW 19:59:13 15° ESE
STARLINK-1226 2.8 19:54:04 10° WNW 19:57:13 89° S 19:59:40 15° ESE
Cosmos 1980 Rocket 4.3 19:54:56 10° N 19:57:20 13° NNE 19:59:43 10° NE
STARLINK-1254 2.8 19:54:29 10° WNW 19:57:39 89° SSW 20:00:06 15° ESE
SeaSat 1 2.9 19:53:06 10° NNE 19:58:02 67° WNW 20:02:55 10° SW
STARLINK-1215 2.8 19:54:59 10° WNW 19:58:07 88° SSW 20:00:32 16° ESE
STARLINK-1231 2.8 19:55:26 10° WNW 19:58:34 87° SSW 20:00:58 16° ESE
STARLINK-1244 4.0 19:54:29 10° WNW 19:58:35 59° NNE 20:02:10 13° E
STARLINK-1232 2.8 19:56:21 10° WNW 19:59:29 86° SSW 20:01:50 16° ESE
STARLINK-1217 2.8 19:56:47 10° WNW 19:59:55 86° SSW 20:02:16 16° ESE
Abrixas rocket 2.2 19:57:06 10° W 20:00:01 55° SSW 20:02:07 17° ESE
STARLINK-1208 2.8 19:57:12 10° WNW 20:00:21 85° SSW 20:02:43 16° ESE
STARLINK-1229 2.8 19:57:41 10° WNW 20:00:49 85° SSW 20:03:07 17° ESE
USA 234 4.5 19:56:59 10° E 20:01:07 17° ESE 20:05:13 10° SSE
STARLINK-1271 2.8 19:58:09 10° WNW 20:01:16 84° SSW 20:03:34 17° ESE
STARLINK-1270 2.8 19:58:35 10° WNW 20:01:43 83° SSW 20:04:00 17° ESE
STARLINK-1154 2.8 19:59:03 10° WNW 20:02:11 83° SSW 20:04:26 17° ESE
STARLINK-1197 2.8 19:59:57 10° WNW 20:03:05 82° SSW 20:05:18 18° ESE
STARLINK-1138 3.9 19:59:23 10° WNW 20:03:30 61° NNE 20:06:52 15° E
STARLINK-1189 2.8 20:00:23 10° WNW 20:03:31 81° SSW 20:05:43 18° ESE
ATLAS 5 CENTAUR R/B 1.5 19:59:44 10° SSW 20:03:51 65° SE 20:08:30 10° NE
STARLINK-1198 2.8 20:00:51 10° WNW 20:03:59 81° SSW 20:06:10 18° ESE
STARLINK-1188 2.8 20:01:17 10° WNW 20:04:25 80° SSW 20:06:35 18° ESE
H-2A R/B 2.4 19:59:22 10° S 20:04:30 66° WSW 20:09:32 10° NNW
STARLINK-1235 3.1 20:01:57 10° WNW 20:05:05 65° SSW 20:07:18 18° SE
ATLAS 2AS CENTAUR R/B 3.3 19:57:36 10° NW 20:05:07 64° WSW 20:11:57 10° SSE
STARLINK-1187 3.0 20:02:21 10° WNW 20:05:31 71° SSW 20:07:42 18° SE
STARLINK-1199 2.9 20:03:14 10° WNW 20:06:23 78° SSW 20:08:31 19° ESE
STARLINK-1191 2.9 20:03:41 10° WNW 20:06:49 77° SSW 20:08:56 19° SE
STARLINK-1210 2.9 20:04:08 10° WNW 20:07:17 77° SSW 20:09:23 19° SE
STARLINK-1221 2.9 20:04:36 10° WNW 20:07:44 76° SSW 20:09:49 19° SE
STARLINK-1219 2.9 20:05:02 10° WNW 20:08:11 75° SSW 20:10:15 20° SE
COSMOS 2455 2.9 20:02:18 10° NNW 20:08:22 82° NE 20:13:57 12° SE
STARLINK-1143 3.8 20:04:21 10° WNW 20:08:29 64° NNE 20:11:39 16° E
STARLINK-1222 2.9 20:05:29 10° WNW 20:08:38 75° SSW 20:10:40 20° SE
STARLINK-1211 2.9 20:05:57 10° WNW 20:09:06 74° SSW 20:11:07 20° SE
STARLINK-1214 2.9 20:06:24 10° WNW 20:09:32 74° SSW 20:11:33 20° SE
STARLINK-1245 2.9 20:06:53 10° WNW 20:10:00 73° SSW 20:11:57 20° SE
STARLINK-1238 2.9 20:07:17 10° WNW 20:10:26 73° SSW 20:12:25 20° SE
STARLINK-1205 2.9 20:08:14 10° WNW 20:11:21 71° SSW 20:13:16 21° SE
Cosmos 1140 Rocket 3.4 20:06:35 10° S 20:11:44 68° ESE 20:16:52 10° NNE
STARLINK-1204 2.9 20:08:41 10° WNW 20:11:48 71° SSW 20:13:42 21° SE
ERBS 2.9 20:08:56 10° NW 20:12:13 45° NNE 20:14:20 19° E
Ariane Rocket 4.0 20:08:31 10° S 20:13:24 48° W 20:18:19 10° NNW
STARLINK-1241 3.8 20:09:22 10° WNW 20:13:31 67° NNE 20:16:28 18° E
STARLINK-29 2.8 20:13:47 10° SW 20:16:58 69° SSE 20:19:44 13° ENE
STARLINK-1239 3.7 20:14:20 10° WNW 20:18:29 70° NNE 20:21:14 20° ESE
Cosmos 614 Rocket 4.4 20:14:19 10° SSW 20:19:31 68° WNW 20:24:44 10° NNE
ATLAS CENTAUR R/B 3.4 20:17:16 10° NNW 20:19:46 16° NNE 20:22:09 10° ENE
CZ-2C R/B 3.7 20:15:08 10° S 20:19:50 51° W 20:24:29 10° NNW
SJ-6B 3.5 20:16:55 10° S 20:20:59 58° W 20:25:04 10° NNW
Cosmos 1300 2.9 20:18:42 10° S 20:22:23 49° E 20:26:06 10° NNE
Resurs 1-3 3.5 20:18:54 11° SSE 20:23:04 76° ENE 20:27:29 10° N
STARLINK-1240 3.7 20:19:19 10° WNW 20:23:28 74° NNE 20:26:01 22° ESE
STARLINK-60 3.4 20:21:32 10° WSW 20:24:48 63° NNW 20:27:48 12° ENE
Spot 2 Rocket 4.3 20:22:15 19° ESE 20:25:11 35° ENE 20:29:47 10° N
Cosmos 1190 Rocket 4.1 20:20:38 10° SSW 20:25:57 83° WNW 20:31:16 10° NNE
STARLINK-1216 3.6 20:24:17 10° WNW 20:28:26 77° NNE 20:30:47 25° ESE
Aureole 1 Rocket 4.3 20:22:21 10° SSW 20:29:36 71° WNW 20:35:10 10° NNE
SL-24 R/B 3.7 20:27:19 10° NNE 20:31:22 88° W 20:35:04 10° SSW
Terra 3.8 20:29:53 12° ENE 20:31:23 14° NE 20:33:43 10° NNE
CZ-2C R/B 3.7 20:27:45 10° NNE 20:32:29 89° ESE 20:37:06 10° SSW
SPOT 5 4.4 20:31:40 14° ENE 20:32:46 16° ENE 20:35:20 10° NNE
STARLINK-1237 3.6 20:29:15 10° WNW 20:33:24 81° NNE 20:35:33 28° ESE
MetOp-B 4.5 20:32:14 21° SE 20:35:33 49° ENE 20:40:43 10° N
STARLINK-1228 4.1 20:33:34 10° W 20:36:12 29° SW 20:37:09 23° S
Cosmos 2058 Rocket 3.5 20:32:44 10° SSW 20:37:13 66° WNW 20:41:43 10° N
Cosmos 1833 Rocket 4.3 20:39:02 15° E 20:39:02 15° E 20:41:02 10° ENE
STARLINK-1202 3.6 20:34:15 10° WNW 20:38:25 85° NNE 20:40:21 31° ESE
Cosmos 468 Rocket 4.2 20:34:50 10° NNW 20:39:55 53° ENE 20:42:31 27° SE
Cosmos 192 4.4 20:35:46 10° NNW 20:40:43 63° ENE 20:43:22 27° SE
Cosmos 921 Rocket 3.8 20:38:49 10° NNW 20:42:50 47° WSW 20:46:33 12° S
SL-4 R/B 2.2 20:41:09 10° W 20:44:29 52° N 20:46:33 21° ENE
DMSP B5D2-2 4.0 20:40:59 10° NNE 20:46:15 88° ESE 20:51:30 10° SSW
STARLINK-1201 3.8 20:43:12 10° WNW 20:46:19 41° SW 20:47:06 34° S
Cosmos 1408 3.9 20:43:54 10° NNE 20:46:55 24° ENE 20:46:55 24° ENE
Cosmos 1340 Rocket 3.9 20:43:18 10° SSW 20:47:12 46° WNW 20:51:06 10° N
STARLINK-1246 3.5 20:44:12 10° WNW 20:48:21 86° SSW 20:49:54 37° ESE
ERS-1 Rocket 4.0 20:47:01 24° E 20:48:37 29° ENE 20:52:55 10° N
RESURS DK-1 3.4 20:45:19 10° NNW 20:49:07 33° NE 20:50:15 28° E
Cosmos 2341 Rocket 4.2 20:45:27 10° NNW 20:51:50 76° W 20:58:13 10° S
BREEZE M DEB (TANK) 3.2 20:43:34 10° WSW 20:51:55 69° SSE 20:53:25 33° E
STARLINK-1224 3.5 20:49:12 10° WNW 20:53:22 81° SSW 20:54:43 41° SE
Cosmos 676 Rocket 4.1 20:49:54 10° SSW 20:55:10 77° WNW 21:00:27 10° NNE
STARLINK-1203 3.6 20:51:34 10° WNW 20:55:46 74° SSW 20:57:04 42° SE
Cosmos 2058 2.8 20:51:55 10° N 20:56:02 67° E 20:57:23 40° SSE
CZ-4C R/B 3.7 20:50:35 10° NW 20:56:56 40° NNE 21:01:49 20° E
Cosmos 220 Rocket 4.0 20:52:36 10° NNW 20:56:57 83° WSW 20:58:53 33° SSE
COSMOS 2406 3.7 20:54:52 27° SSE 20:57:06 38° ESE 21:02:19 10° NE
STARLINK-52 3.1 20:54:10 10° WSW 20:57:22 72° NNW 20:58:27 37° NE
Resurs 01 Rocket 1.8 20:55:17 21° S 20:58:10 70° WSW 21:02:35 10° NNW
STARLINK-1225 3.6 20:54:12 10° WNW 20:58:20 76° SSW 20:59:30 45° SE
MOS 1 Rocket 3.8 20:55:51 10° N 21:01:16 76° WNW 21:06:41 10° SSW
Cosmos 2218 Rocket 3.9 20:56:43 10° N 21:02:59 84° E 21:07:06 23° S
STARLINK-1230 3.6 20:59:10 10° WNW 21:03:18 72° SSW 21:04:16 49° SE
Cosmos 1812 Rocket 3.4 21:02:25 30° S 21:04:31 74° E 21:08:51 10° NNE
CZ-2C R/B 2.7 20:59:33 10° NNE 21:04:45 77° WNW 21:09:57 10° SSW
FALCON 9 DEB 3.4 21:03:08 10° WSW 21:06:37 66° NNW 21:07:53 35° NE
Cosmos 2151 3.5 21:03:26 10° N 21:07:23 38° ENE 21:07:34 38° E
STARLINK-1243 3.7 21:04:08 10° WNW 21:08:16 67° SSW 21:09:03 53° SSE
Iridium 2 3.8 21:08:18 31° SSW 21:10:00 76° W 21:13:50 10° N
Cosmos 1697 Rocket 3.2 21:07:13 10° NNW 21:12:41 46° NE 21:14:29 35° E
Cosmos 2369 4.2 21:07:22 10° NNW 21:12:48 45° NE 21:14:34 35° E
STARLINK-1236 3.7 21:09:07 10° WNW 21:13:14 63° SSW 21:13:50 55° S
USA 245 4.4 21:11:50 32° SSE 21:14:49 82° ENE 21:21:20 10° NNW
SL-8 Rocket 4.3 21:08:47 10° NNW 21:15:05 70° W 21:19:53 18° S
Cosmos 864 Rocket 4.4 21:10:27 10° N 21:16:41 85° W 21:20:15 27° S
Cosmos 2181 Rocket 4.2 21:14:43 10° SSW 21:20:57 73° W 21:27:08 10° N
Cosmos 1076 Rocket 3.8 21:17:26 10° NNW 21:21:42 65° W 21:23:08 39° SSW
STARLINK-1269 3.8 21:19:06 10° WNW 21:23:10 54° SSW 21:23:23 53° SSW
Cosmos 1741 Rocket 3.9 21:21:15 22° SSW 21:24:46 76° ESE 21:30:07 10° NNE
Landsat 7 3.7 21:25:09 53° SSE 21:26:17 84° ENE 21:31:05 10° NNW
Meteor 2-1 Rocket 4.3 21:23:23 20° S 21:27:39 90° W 21:33:38 10° NNE
STARLINK-1200 4.0 21:24:05 10° WNW 21:28:07 51° SW 21:28:10 50° SSW
Cosmos 2366 rocket 4.2 21:23:09 10° NNW 21:29:15 68° W 21:32:54 25° S
Cosmos 1763 Rocket 3.5 21:24:54 10° NNW 21:30:05 75° WSW 21:31:31 47° S
Cosmos 1455 2.8 21:31:25 45° NE 21:31:25 45° NE 21:34:17 10° NNE
Cosmos 1656 3.6 21:25:28 10° NNW 21:31:11 84° WSW 21:32:50 48° SSE
SPOT 1/Viking Rocket 3.5 21:30:44 51° SSE 21:32:04 82° ENE 21:37:20 10° NNW
STARLINK-1192 4.1 21:29:05 10° WNW 21:32:57 47° SW 21:32:57 47° SW
Cosmos 540 Rocket 3.5 21:28:27 10° NNW 21:33:36 62° ENE 21:34:20 55° ESE
SL-16 R/B 4.1 21:30:08 10° N 21:33:57 18° NE 21:36:11 15° ENE
Cosmos 2208 Rocket 3.9 21:29:57 10° NNW 21:35:11 72° ENE 21:36:03 59° ESE
Cosmos 1892 3.3 21:32:57 10° NNW 21:36:46 52° W 21:37:13 49° WSW
Iridium 4 Rocket 3.5 21:33:50 10° N 21:37:57 56° W 21:38:54 44° SW
STARLINK-1244 4.3 21:34:11 10° WNW 21:37:50 43° SW 21:37:50 43° SW
Cosmos 2322 Rocket 4.2 21:37:12 10° N 21:40:53 17° NE 21:43:04 14° ENE
Cosmos 1825 2.7 21:37:28 10° N 21:40:28 51° NNE 21:40:28 51° NNE
Nadezhda 3 Rocket 4.0 21:41:26 50° SE 21:42:46 61° E 21:48:55 10° NNE
Cosmos 1980 Rocket 2.7 21:37:30 10° NNW 21:42:53 44° NE 21:43:48 41° E
USA 234 3.2 21:38:34 10° ENE 21:45:03 60° SE 21:51:30 10° SW
Cosmos-2242 3.0 21:45:30 75° NE 21:45:30 75° NE 21:49:33 10° N
Cosmos 1814 Rocket 3.9 21:40:04 10° NNW 21:45:28 76° ENE 21:46:08 66° ESE
ERBS 4.3 21:45:28 10° WNW 21:47:18 23° W 21:47:18 23° W
ATLAS 5 CENTAUR R/B 3.8 21:45:09 10° W 21:48:55 27° NNW 21:53:10 10° NNE
ASTEX 1 4.2 21:50:00 38° ENE 21:50:00 38° ENE 21:54:07 10° N
Cosmos 1356 Rocket 3.5 21:49:52 78° NW 21:49:52 78° NW 21:54:00 10° N
BREEZE-M DEB (TANK) 4.3 21:48:29 10° W 21:49:10 16° WNW 21:49:10 16° WNW
Meteor 2-3 Rocket 3.9 21:49:22 10° N 21:55:01 55° ENE 21:55:21 54° E
IGS 5A 4.1 21:56:54 47° WSW 21:57:01 48° W 22:01:04 10° NNW
ATLAS CENTAUR R/B 2.1 21:55:29 10° NW 21:58:21 46° NNW 21:58:21 46° NNW
Cosmos 2239 Rocket 4.4 21:58:20 10° N 22:04:38 85° E 22:05:42 64° SSE
USA 32 4.4 22:00:49 10° NNW 22:05:58 59° W 22:06:56 50° SW
Mayak 0.8 22:03:40 10° NNE 22:04:58 18° NE 22:04:58 18° NE
Terra 1.8 22:08:45 76° N 22:08:45 76° N 22:13:12 10° NNW
Cosmos 841 Rocket 3.6 22:04:06 10° NNW 22:09:20 63° WSW 22:09:38 62° SW
Cosmos 1821 Rocket 4.0 22:03:33 10° N 22:09:58 79° W 22:11:21 57° S
SPOT 5 3.0 22:10:53 61° WNW 22:10:53 61° WNW 22:14:42 10° NNW
Cosmos 2360 4.0 22:05:15 10° NNW 22:10:59 86° ENE 22:11:16 81° SE
Cosmos 1934 Rocket 3.9 22:04:44 10° N 22:10:59 69° E 22:11:27 66° ESE
Cosmos 2278 3.5 22:08:32 10° NNW 22:14:14 86° ENE 22:14:24 84° ESE
Cosmos 2082 Rocket 2.8 22:15:56 42° ENE 22:15:56 42° ENE 22:19:56 10° NE
Meteor 2-10 Rocket 3.9 22:14:57 49° SW 22:16:06 61° WNW 22:21:32 10° N
CARTOSAT-1 4.2 22:16:37 51° WNW 22:16:37 51° WNW 22:20:22 10° NNW
Cosmos 1833 Rocket 2.6 22:20:38 83° SW 22:20:49 87° WNW 22:26:31 10° NNE
SL-4 R/B 4.1 22:20:56 10° WNW 22:22:09 20° WNW 22:22:09 20° WNW
RESURS DK-1 4.1 22:23:28 10° NW 22:26:09 27° W 22:26:09 27° W
ERS-1 Rocket 3.7 22:27:00 43° WSW 22:27:14 43° W 22:32:02 10° NNW
Cosmos 1605 Rocket 4.0 22:23:17 10° N 22:29:21 63° ENE 22:29:21 63° ENE
Cosmos 2344 4.3 22:24:37 10° NW 22:34:00 82° NE 22:38:35 45° SE
COSMOS 2406 4.3 22:36:44 14° WSW 22:41:21 42° NW 22:46:48 10° NNE
CZ-4C R/B 2.8 22:38:59 10° NW 22:46:08 76° SW 22:46:59 69° S
Meteor 1-27 4.3 22:47:28 74° NNE 22:47:28 74° NNE 22:52:47 10° NNE
Cosmos 1697 Rocket 3.8 22:51:28 10° NW 22:56:13 33° W 22:56:13 33° W
Cosmos 1607 4.2 23:12:04 60° NE 23:12:04 60° NE 23:17:07 10° NE
Thor Agena Rocket 4.3 23:13:12 10° N 23:16:56 48° N 23:16:56 48° N
SL-16 R/B 2.7 23:13:25 10° NNW 23:18:02 57° N 23:18:02 57° N
Cosmos 2360 Rocket 3.3 23:14:25 10° NNW 23:19:17 37° NE 23:19:17 37° NE
Cosmos 2221 4.4 23:23:26 29° NNW 23:23:26 29° NNW 23:25:50 10° N
Cosmos 2322 Rocket 2.8 23:20:23 10° NNW 23:24:52 54° N 23:24:52 54° N
Cosmos 1980 Rocket 3.5 23:21:44 10° NW 23:25:34 31° W 23:25:34 31° W
USA 234 3.6 23:21:41 10° NE 23:28:06 61° NNW 23:34:31 10° W
Cosmos 1459 Rocket 4.2 23:30:40 10° N 23:36:11 65° NNE 23:36:11 65° NNE
Cosmos 2333 Rocket 3.8 23:37:03 10° N 23:41:43 25° NE 23:42:26 25° ENE
Mayak 1.1 23:39:30 10° N 23:41:32 21° NW 23:41:32 21° NW
Terra 4.4 23:47:38 13° WNW 23:47:38 13° WNW 23:49:01 10° WNW
Cosmos 1727 Rocket 4.3 23:50:33 61° NW 23:50:33 61° NW 23:56:15 10° N
